CW8504 Weather Reports


time (UTC)temp
C
wind
direction
speed
KPH
gust
KPH
rain 1hr
cm
rain 24hr
cm
rain mn
cm
humidity
%
barometer
mb
20260506202404 13 229 0.0 19.3 0.00 0.00 0.00 12 1017.5
20260506201904 13 241 1.6 8.0 0.00 0.00 0.00 13 1017.5
20260506201404 13 249 0.0 8.0 0.00 0.00 0.00 13 1017.4
20260506200904 13 231 0.0 4.8 0.00 0.00 0.00 12 1017.5
20260506200404 13 239 6.4 19.3 0.00 0.00 0.00 13 1017.6
20260506195904 13 207 9.7 32.2 0.00 0.00 0.00 15 1017.4
20260506195404 13 224 12.9 32.2 0.00 0.00 0.00 15 1017.3
20260506194404 13 241 11.3 22.5 0.00 0.00 0.00 13 1017.5
20260506193904 13 207 8.0 19.3 0.00 0.00 0.00 14 1017.7
20260506193404 13 273 3.2 19.3 0.00 0.00 0.00 13 1017.7
20260506192904 13 231 1.6 4.8 0.00 0.00 0.00 13 1017.7
20260506192404 12 221 1.6 8.0 0.00 0.00 0.00 14 1017.7
20260506191904 12 239 3.2 4.8 0.00 0.00 0.00 14 1017.7
20260506190904 12 244 3.2 12.9 0.00 0.00 0.00 12 1017.8
20260506190404 11 226 3.2 11.3 0.00 0.00 0.00 13 1017.8
20260506185904 11 355 0.0 4.8 0.00 0.00 0.00 10 1017.9
20260506185404 11 28 1.6 16.1 0.00 0.00 0.00 12 1017.8
20260506184904 11 37 4.8 14.5 0.00 0.00 0.00 11 1017.8
20260506184404 11 30 0.0 8.0 0.00 0.00 0.00 12 1017.7
20260506183904 11 7 6.4 14.5 0.00 0.00 0.00 10 1017.8
20260506183404 11 46 1.6 19.3 0.00 0.00 0.00 11 1017.9
20260506182904 11 61 3.2 9.7 0.00 0.00 0.00 10 1018.0
20260506182404 10 244 4.8 19.3 0.00 0.00 0.00 13 1018.0
20260506181904 10 38 8.0 25.7 0.00 0.00 0.00 10 1018.1
20260506181404 10 22 1.6 9.7 0.00 0.00 0.00 8 1018.2
20260506180904 10 42 4.8 12.9 0.00 0.00 0.00 8 1018.2
20260506175904 11 2 1.6 9.7 0.00 0.00 0.00 7 1018.2
20260506175403 11 173 0.0 0.0 0.00 0.00 0.00 12 1018.3
20260506174904 10 164 0.0 4.8 0.00 0.00 0.00 15 1018.4
20260506174404 10 152 0.0 3.2 0.00 0.00 0.00 13 1018.4
20260506173404 10 152 1.6 4.8 0.00 0.00 0.00 17 1018.5
20260506172904 9 212 0.0 0.0 0.00 0.00 0.00 20 1018.6
20260506171904 9 229 3.2 11.3 0.00 0.00 0.00 21 1018.8
20260506171404 8 27 0.0 3.2 0.00 0.00 0.00 22 1018.8
20260506170904 8 9 0.0 1.6 0.00 0.00 0.00 23 1019.0
20260506170404 7 5 0.0 0.0 0.00 0.00 0.00 23 1018.9
20260506165919 7 9 0.0 0.0 0.00 0.00 0.00 22 1019.0
20260506165404 7 7 1.6 4.8 0.00 0.00 0.00 24 1019.0
20260506164904 7 333 1.6 4.8 0.00 0.00 0.00 23 1019.0
20260506164404 7 331 0.0 4.8 0.00 0.00 0.00 23 1019.0
20260506163903 7 315 0.0 0.0 0.00 0.00 0.00 23 1019.1
20260506163404 7 315 0.0 4.8 0.00 0.00 0.00 27 1019.2
20260506162904 7 343 0.0 3.2 0.00 0.00 0.00 28 1019.2
20260506162404 7 349 0.0 0.0 0.00 0.00 0.00 30 1019.2
20260506160904 6 219 0.0 0.0 0.00 0.00 0.00 28 1019.4
20260506160404 6 219 0.0 3.2 0.00 0.00 0.00 29 1019.4
20260506155904 6 77 0.0 0.0 0.00 0.00 0.00 29 1019.4
20260506155404 6 76 0.0 0.0 0.00 0.00 0.00 31 1019.4
20260506154904 6 76 0.0 0.0 0.00 0.00 0.00 32 1019.5
20260506154404 5 75 0.0 0.0 0.00 0.00 0.00 37 1019.5
20260506153904 5 69 0.0 0.0 0.00 0.00 0.00 37 1019.5
20260506153404 5 69 0.0 0.0 0.00 0.00 0.00 38 1019.5
20260506152904 5 69 0.0 0.0 0.00 0.00 0.00 39 1019.5
20260506152404 4 69 0.0 0.0 0.00 0.00 0.00 40 1019.5
20260506151903 3 69 0.0 0.0 0.00 0.00 0.00 39 1019.5
20260506151404 3 69 0.0 0.0 0.00 0.00 0.00 40 1019.5
20260506150904 3 69 0.0 0.0 0.00 0.00 0.00 43 1019.5
20260506150404 3 70 0.0 0.0 0.00 0.00 0.00 43 1019.5
20260506145404 2 71 0.0 0.0 0.00 0.00 0.00 48 1019.4
20260506144404 1 72 0.0 0.0 0.00 0.00 0.00 49 1019.5
20260506143904 1 72 0.0 0.0 0.00 0.00 0.00 49 1019.6
20260506143404 0 188 0.0 0.0 0.00 0.00 0.00 51 1019.7
20260506142904 0 224 0.0 0.0 0.00 0.00 0.00 54 1019.7
20260506142404 0 214 0.0 0.0 0.00 0.00 0.00 55 1019.6
20260506141903 0 214 0.0 0.0 0.00 0.00 0.00 56 1019.7
20260506141404 0 214 0.0 0.0 0.00 0.00 0.00 55 1019.7
20260506140904 0 214 0.0 0.0 0.00 0.00 0.00 56 1019.7
20260506140405 0 214 0.0 0.0 0.00 0.00 0.00 56 1019.6
20260506135904 -1 214 0.0 0.0 0.00 0.00 0.00 57 1019.7
20260506135404 -1 214 0.0 0.0 0.00 0.00 0.00 58 1019.7
20260506134904 -1 214 0.0 0.0 0.00 0.00 0.00 61 1019.7
20260506134404 -1 214 0.0 0.0 0.00 0.00 0.00 63 1019.7
20260506133404 -2 214 0.0 0.0 0.00 0.00 0.00 67 1019.6
20260506132904 -3 214 0.0 0.0 0.00 0.00 0.00 68 1019.5
20260506132411 -3 214 0.0 0.0 0.00 0.00 0.00 68 1019.5
20260506131904 -4 214 0.0 0.0 0.00 0.00 0.00 68 1019.5
20260506130904 -5 214 0.0 0.0 0.00 0.00 0.00 67 1019.3
20260506125904 -5 214 0.0 0.0 0.00 0.00 0.00 67 1019.2
20260506124904 -5 214 0.0 0.0 0.00 0.00 0.00 66 1019.0
20260506124404 -5 214 0.0 0.0 0.00 0.00 0.00 66 1018.9
20260506123904 -5 214 0.0 0.0 0.00 0.00 0.00 66 1018.9
20260506123404 -5 214 0.0 0.0 0.00 0.00 0.00 66 1018.8
20260506121904 -5 214 0.0 0.0 0.00 0.00 0.00 64 1018.7
20260506121404 -5 214 0.0 0.0 0.00 0.00 0.00 63 1018.7
20260506120904 -4 214 0.0 0.0 0.00 0.00 0.00 63 1018.7
20260506120404 -4 214 0.0 0.0 0.00 0.00 0.00 63 1018.7
20260506114404 -3 214 0.0 0.0 0.00 0.00 0.00 63 1018.5
20260506113904 -3 214 0.0 0.0 0.00 0.00 0.00 63 1018.4
20260506113404 -3 214 0.0 0.0 0.00 0.00 0.00 64 1018.4
20260506112904 -3 214 0.0 0.0 0.00 0.00 0.00 63 1018.3
20260506112405 -3 215 0.0 0.0 0.00 0.00 0.00 63 1018.2
20260506111904 -3 214 0.0 0.0 0.00 0.00 0.00 63 1018.2
20260506111404 -3 214 0.0 0.0 0.00 0.00 0.00 63 1018.2
20260506110904 -3 214 0.0 0.0 0.00 0.00 0.00 61 1018.2
20260506110404 -3 214 0.0 0.0 0.00 0.00 0.00 59 1018.1
20260506105904 -3 214 0.0 0.0 0.00 0.00 0.00 60 1018.0
20260506105404 -3 214 0.0 0.0 0.00 0.00 0.00 60 1018.0
20260506104904 -3 214 0.0 0.0 0.00 0.00 0.00 60 1017.9
20260506104405 -3 214 0.0 0.0 0.00 0.00 0.00 60 1017.9
20260506103904 -3 214 0.0 0.0 0.00 0.00 0.00 60 1017.8
20260506103404 -3 214 0.0 0.0 0.00 0.00 0.00 60 1017.8
20260506102404 -2 214 0.0 0.0 0.00 0.00 0.00 60 1017.8
20260506101904 -2 214 0.0 0.0 0.00 0.00 0.00 60 1017.7
20260506101404 -2 214 0.0 0.0 0.00 0.00 0.00 60 1017.6
20260506100904 -2 214 0.0 0.0 0.00 0.00 0.00 59 1017.6
20260506100404 -2 215 0.0 0.0 0.00 0.00 0.00 58 1017.5
20260506095904 -2 215 0.0 0.0 0.00 0.00 0.00 58 1017.5
20260506095404 -2 215 0.0 0.0 0.00 0.00 0.00 58 1017.5
20260506094905 -2 215 0.0 0.0 0.00 0.00 0.00 58 1017.4
20260506094404 -2 215 0.0 0.0 0.00 0.00 0.00 58 1017.4
20260506093904 -2 215 0.0 0.0 0.00 0.00 0.00 58 1017.4
20260506093404 -2 215 0.0 0.0 0.00 0.00 0.00 57 1017.4
20260506092404 -2 215 0.0 0.0 0.00 0.00 0.00 54 1017.3
20260506091904 -2 215 0.0 0.0 0.00 0.00 0.00 54 1017.2
20260506090904 -1 215 0.0 0.0 0.00 0.00 0.00 55 1017.2
20260506085907 -1 215 0.0 0.0 0.00 0.00 0.00 52 1017.3
20260506084905 -1 215 0.0 0.0 0.00 0.00 0.00 51 1017.1
20260506084404 -1 215 0.0 0.0 0.00 0.00 0.00 51 1017.1
20260506083904 -1 215 0.0 0.0 0.00 0.00 0.00 50 1017.1
20260506083404 -1 215 0.0 0.0 0.00 0.00 0.00 50 1017.0
20260506082404 -1 215 0.0 0.0 0.00 0.00 0.00 48 1016.9
20260506081904 0 215 0.0 0.0 0.00 0.00 0.00 47 1016.9
20260506081404 0 215 0.0 0.0 0.00 0.00 0.00 48 1016.9
20260506080904 0 215 0.0 0.0 0.00 0.00 0.00 47 1016.8
20260506080405 0 215 0.0 0.0 0.00 0.00 0.00 46 1016.8
20260506072905 1 215 0.0 0.0 0.00 0.00 0.00 41 1016.5
20260506072404 1 215 0.0 0.0 0.00 0.00 0.00 41 1016.5
20260506071904 1 215 0.0 0.0 0.00 0.00 0.00 41 1016.5
20260506071404 1 215 0.0 11.3 0.00 0.00 0.00 39 1016.4
20260506070904 1 219 0.0 4.8 0.00 0.00 0.00 38 1016.3
20260506070404 2 257 0.0 0.0 0.00 0.00 0.00 38 1016.3
20260506062404 3 257 0.0 0.0 0.00 0.00 0.00 31 1016.2
20260506061404 3 257 0.0 0.0 0.00 0.00 0.00 31 1015.9
20260506060904 3 257 0.0 0.0 0.00 0.00 0.00 31 1015.9
20260506060404 3 257 0.0 0.0 0.00 0.00 0.00 31 1015.8
20260506051403 4 248 0.0 0.0 0.00 0.00 0.00 27 1015.6
20260506050905 4 252 0.0 0.0 0.00 0.00 0.00 27 1015.6
20260506050404 4 248 0.0 0.0 0.00 0.00 0.00 26 1015.4
20260506044904 4 238 1.6 8.0 0.00 0.00 0.00 30 1015.1
20260506044404 4 233 0.0 0.0 0.00 0.00 0.00 31 1015.5
20260506043904 4 232 0.0 0.0 0.00 0.00 0.00 33 1015.3
20260506043404 3 232 0.0 0.0 0.00 0.00 0.00 33 1015.5
20260506042404 3 231 0.0 0.0 0.00 0.00 0.00 37 1015.4
20260506041904 3 355 0.0 0.0 0.00 0.00 0.00 36 1015.3
20260506041404 3 34 0.0 0.0 0.00 0.00 0.00 38 1015.4
20260506035404 3 34 0.0 0.0 0.00 0.00 0.00 43 1015.4
20260506034904 3 34 0.0 0.0 0.00 0.00 0.00 44 1015.3
20260506034404 3 34 0.0 0.0 0.00 0.00 0.00 43 1015.5
20260506033904 3 34 0.0 0.0 0.00 0.00 0.00 43 1015.3
20260506033404 3 32 0.0 0.0 0.00 0.00 0.00 43 1015.5
20260506032904 3 32 0.0 0.0 0.00 0.00 0.00 45 1015.6
20260506032404 3 32 4.8 14.5 0.00 0.00 0.00 45 1015.3
20260506031904 3 13 8.0 19.3 0.00 0.00 0.00 44 1015.1
20260506031404 4 38 9.7 19.3 0.00 0.00 0.00 44 1015.2
20260506030907 4 48 8.0 16.1 0.00 0.00 0.00 47 1015.1
20260506030404 5 32 11.3 19.3 0.00 0.00 0.00 46 1015.1
20260506025904 5 0 8.0 20.9 0.00 0.00 0.00 44 1015.0
20260506025404 5 32 8.0 12.9 0.00 0.00 0.00 43 1014.6
20260506024904 5 35 8.0 19.3 0.00 0.00 0.00 43 1014.4
20260506024404 6 43 8.0 16.1 0.00 0.00 0.00 42 1014.1
20260506023904 6 43 1.6 14.5 0.00 0.00 0.00 40 1014.1
20260506023404 6 45 4.8 19.3 0.00 0.00 0.00 39 1013.8
20260506022903 6 36 11.3 24.1 0.00 0.00 0.00 37 1013.5
20260506021911 7 36 11.3 24.1 0.00 0.00 0.00 34 1013.0
20260506021404 7 33 4.8 12.9 0.00 0.00 0.00 31 1013.1
20260506020904 8 46 4.8 9.7 0.00 0.00 0.00 29 1012.6
20260506020404 8 37 6.4 19.3 0.00 0.00 0.00 27 1012.7
20260506015904 8 347 6.4 19.3 0.00 0.00 0.00 26 1012.4
20260506015404 8 35 3.2 16.1 0.00 0.00 0.00 24 1012.3
20260506014405 9 52 0.0 1.6 0.00 0.00 0.00 23 1012.1
20260506013904 10 324 0.0 14.5 0.00 0.00 0.00 22 1011.7
20260506013404 10 23 0.0 8.0 0.00 0.00 0.00 20 1011.6
20260506012905 10 33 1.6 8.0 0.00 0.00 0.00 19 1011.5
20260506012404 10 29 0.0 4.8 0.00 0.00 0.00 18 1011.6
20260506011905 11 54 0.0 11.3 0.00 0.00 0.00 18 1011.5
20260506011407 11 44 1.6 9.7 0.00 0.00 0.00 17 1011.3
20260506004904 12 48 1.6 8.0 0.00 0.00 0.00 15 1010.9
20260506004404 12 50 0.0 4.8 0.00 0.00 0.00 14 1011.0
20260506003904 12 5 0.0 14.5 0.00 0.00 0.00 16 1011.0
20260506003404 12 57 1.6 14.5 0.00 0.00 0.00 14 1011.0
20260506001905 11 32 3.2 16.1 0.00 0.00 0.00 15 1011.1
20260506001404 11 45 1.6 14.5 0.00 0.00 0.00 15 1011.1
20260506000904 11 45 1.6 14.5 0.00 0.00 0.00 13 1011.0
20260506000404 11 19 8.0 19.3 0.00 0.00 0.00 13 1010.9
20260505235903 11 32 6.4 14.5 0.00 0.00 0.00 12 1010.9
20260505235404 12 35 1.6 12.9 0.00 0.00 0.00 14 1010.9
20260505234904 12 50 1.6 8.0 0.00 0.00 0.00 13 1010.9
20260505234403 12 25 3.2 9.7 0.00 0.00 0.00 14 1010.9
20260505233904 12 15 3.2 14.5 0.00 0.00 0.00 13 1010.8
20260505233403 12 19 3.2 19.3 0.00 0.00 0.00 13 1010.8
20260505232404 13 38 8.0 20.9 0.00 0.00 0.00 10 1010.8
20260505231904 15 37 3.2 16.1 0.00 0.00 0.00 10 1010.7
20260505231404 15 243 1.6 22.5 0.00 0.00 0.00 10 1010.6
20260505230904 15 241 11.3 32.2 0.00 0.00 0.00 7 1010.6
20260505225904 15 249 9.7 16.1 0.00 0.00 0.00 7 1010.5
20260505225404 15 279 1.6 8.0 0.00 0.00 0.00 8 1010.4
20260505224904 15 272 11.3 32.2 0.00 0.00 0.00 6 1010.4
20260505223404 15 298 3.2 12.9 0.00 0.00 0.00 12 1010.3
20260505221404 14 202 3.2 27.4 0.00 0.00 0.00 9 1010.3
20260505220903 14 262 3.2 14.5 0.00 0.00 0.00 9 1010.3
20260505220404 14 356 14.5 33.8 0.00 0.00 0.00 11 1010.4
20260505215904 14 59 6.4 19.3 0.00 0.00 0.00 12 1010.1
20260505214904 14 48 4.8 11.3 0.00 0.00 0.00 10 1010.1
20260505214404 14 36 3.2 19.3 0.00 0.00 0.00 13 1010.2
20260505213904 14 248 1.6 19.3 0.00 0.00 0.00 15 1010.2
20260505212903 13 10 0.0 9.7 0.00 0.00 0.00 14 1010.3
20260505212404 13 273 3.2 12.9 0.00 0.00 0.00 19 1010.5
20260505211907 13 307 1.6 14.5 0.00 0.00 0.00 16 1010.3
20260505211404 12 9 1.6 11.3 0.00 0.00 0.00 14 1010.2
20260505210904 13 89 1.6 20.9 0.00 0.00 0.00 14 1010.3
20260505210405 13 358 0.0 4.8 0.00 0.00 0.00 16 1010.3
20260505205404 13 43 0.0 9.7 0.00 0.00 0.00 17 1010.2
20260505204905 13 42 6.4 25.7 0.00 0.00 0.00 15 1010.1
20260505204411 13 28 1.6 8.0 0.00 0.00 0.00 16 1010.2
20260505203904 13 51 4.8 16.1 0.00 0.00 0.00 15 1010.2
20260505203404 13 340 9.7 24.1 0.00 0.00 0.00 14 1010.3
20260505202904 13 238 1.6 8.0 0.00 0.00 0.00 17 1010.4